Weather History for KLAF - November, 2012

Change the Weather History Date:

Saturday, November 3, 2012

  Actual Average Record
Temperature  
Mean Temperature 37 °F 48 °F  
Max Temperature 40 °F 58 °F 77 °F (1987)
Min Temperature 33 °F 39 °F 17 °F (1991)
Degree Days  
Heating Degree Days 28 17  
Month to date heating degree days 76 49  
Since 1 July heating degree days 657 483  
Cooling Degree Days 0 0  
Month to date cooling degree days 0 0  
Year to date cooling degree days 1181 982  
Moisture  
Dew Point 32 °F    
Average Humidity 88    
Maximum Humidity 96    
Minimum Humidity 79    
Precipitation  
Precipitation 0.08 in 0.10 in 0.69 in (1948)
Month to date precipitation 0.08 0.28  
Year to date precipitation 26.98 31.38  
Sea Level Pressure  
Sea Level Pressure 30.17 in    
Wind  
Wind Speed 5 mph (ENE)    
Max Wind Speed 13 mph    
Max Gust Speed 14 mph    
Visibility 10 miles    
Events Rain    
T = Trace of Precipitation, MM = Missing Value Source: NWS Daily Summary

Daily Weather History Graph

Daily Weather History Graph

Search for Another Location

Airport or City:

Trip Planner

Search our weather history database for the weather conditions in past years. The results will help you decide how hot, cold, wet, or windy it might be!

Date:

Astronomy

Nov. 03, 2012 Rise Set
Actual Time 8:20 AM EDT 6:41 PM EDT
Civil Twilight 7:51 AM EDT 7:10 PM EDT
Nautical Twilight 7:19 AM EDT 7:42 PM EDT
Astronomical Twilight 6:47 AM EDT 8:14 PM EDT
Moon 10:22 PM EDT (11/3) 12:24 PM EDT (11/3)
Length of Visible Light 11h 18m
Length of Day
10h 21m
Waning Gibbous, 80% of the Moon is Illuminated
Nov 3
Waning Gibbous
Nov 6
Last Quarter
Nov 13
New
Nov 20
First Quarter
Nov 28
Full

Hourly Weather History & Observations

Time (EDT) Temp. Windchill Dew Point Humidity Pressure Visibility Wind Dir Wind Speed Gust Speed Precip Events Conditions
12:54 AM 37.0 °F 32.4 °F 32.0 °F 82% 30.14 in 10.0 mi ENE 5.8 mph - N/A   Clear
1:54 AM 37.9 °F 34.4 °F 33.1 °F 83% 30.14 in 10.0 mi ENE 4.6 mph - N/A   Clear
4:54 AM 34.0 °F 29.8 °F 30.9 °F 89% 30.13 in 10.0 mi NE 4.6 mph - N/A   Clear
5:54 AM 34.0 °F 29.8 °F 30.9 °F 89% 30.15 in 10.0 mi ENE 4.6 mph - N/A   Mostly Cloudy
6:54 AM 35.1 °F 29.3 °F 30.9 °F 85% 30.16 in 10.0 mi East 6.9 mph - N/A   Mostly Cloudy
7:54 AM 35.1 °F 28.6 °F 30.9 °F 85% 30.17 in 10.0 mi East 8.1 mph - N/A   Mostly Cloudy
8:54 AM 35.1 °F 29.3 °F 30.9 °F 85% 30.18 in 10.0 mi ENE 6.9 mph - N/A   Overcast
9:54 AM 35.1 °F 30.1 °F 30.9 °F 85% 30.20 in 10.0 mi ENE 5.8 mph - 0.00 in   Ice Pellets
10:54 AM 34.0 °F 29.8 °F 32.0 °F 92% 30.21 in 5.0 mi East 4.6 mph - 0.06 in Rain Ice Pellets
11:54 AM 36.0 °F 29.6 °F 33.1 °F 89% 30.19 in 10.0 mi ENE 8.1 mph - 0.00 in   Ice Pellets
12:54 PM 37.0 °F 31.6 °F 34.0 °F 89% 30.19 in 7.0 mi ENE 6.9 mph - 0.01 in Rain Ice Pellets
1:54 PM 37.9 °F 30.9 °F 34.0 °F 86% 30.17 in 10.0 mi NE 10.4 mph - 0.01 in   Ice Pellets
2:54 PM 37.9 °F 32.1 °F 34.0 °F 86% 30.17 in 10.0 mi NE 8.1 mph - 0.00 in   Ice Pellets
3:54 PM 39.0 °F 32.8 °F 34.0 °F 82% 30.16 in 10.0 mi ENE 9.2 mph - 0.00 in   Ice Pellets
4:54 PM 39.9 °F 35.1 °F 33.1 °F 77% 30.17 in 10.0 mi NE 6.9 mph - 0.00 in   Ice Pellets
5:54 PM 39.9 °F 37.8 °F 33.1 °F 77% 30.17 in 10.0 mi East 3.5 mph - 0.00 in   Ice Pellets
6:54 PM 39.9 °F - 33.1 °F 77% 30.17 in 10.0 mi Calm Calm - N/A   Overcast
7:54 PM 39.0 °F - 33.1 °F 79% 30.18 in 10.0 mi Calm Calm - N/A   Overcast
8:54 PM 36.0 °F - 32.0 °F 86% 30.18 in 10.0 mi Calm Calm - N/A   Mostly Cloudy
9:54 PM 37.9 °F 33.5 °F 32.0 °F 79% 30.19 in 10.0 mi North 5.8 mph - N/A   Overcast
10:54 PM 36.0 °F 30.3 °F 30.0 °F 79% 30.20 in 10.0 mi North 6.9 mph - N/A   Clear
11:54 PM 34.0 °F 29.8 °F 28.9 °F 82% 30.19 in 10.0 mi NNE 4.6 mph - N/A   Partly Cloudy